Погода в Липовке

Россия / Чувашская Республика     55°06′40″N   47°05′37″E
темп.,
°C
ветер,
м/с
пор.,
м/с
влажн.,
%
обл.,
%
осадки,
мм/ч
давл.,
гПа
погр.,
м
19 апреля, пн
пн1900:00+5всв51265100 0.0 1024530
03:00+3всв41262100 0.0 1024438
06:00+2всв51266100 0.0 1025542
09:00+4всв61154100 0.0 1026764
12:00+6в71045100 0.0 10261167
15:00+7всв61047100 0.0 10251365
18:00+6в5115475 0.0 10251404
21:00+5в51158100 0.0 10271058
20 апреля, вт
вт2000:00+3в5124975 0.0 1027618
03:00+2в513585 0.0 1027470
06:00+1в513645 0.0 1028626
09:00+6вюв712390 0.0 1028987
12:00+8вюв710340 0.0 10281264
15:00+10вюв610334 0.0 10261461
18:00+8вюв61137100 0.0 10251225
21:00+6вюв61339100 0.0 10241048
21 апреля, ср
ср2100:00+5вюв71544100 0.0 1022950
03:00+4вюв81849100 0.0 1020918
06:00+2юв71865100 0.9 1019906
09:00+2юв71882100 3.4 1018927
12:00+3юв81785100 1.3 1018896
15:00+4ююв71585100 1.3 1018785
18:00+3ююв61491100 0.0 1019668
21:00+3ююв51293100 0.1 1020531
22 апреля, чт
чт2200:00+3ююв41095100 0.0 1020410
03:00+3ююв41197100 1.0 1020425
06:00+4ююв41196100 1.7 1020536
09:00+6ююз4992100 1.7 1021578
12:00+8ююз3785100 0.0 1022704
15:00+11ю3775100 0.4 1021716
18:00+9ю498519 1.7 1022477
21:00+6ююв39955 1.9 1023222
23 апреля, пт
пт2300:00+5ю26958 0.0 1023128
03:00+5ююз24955 0.0 102482
06:00+6ю25945 0.0 1025122
09:00+11ююз24705 0.0 1025496
12:00+15ююз22485 0.0 10241683
15:00+16ю2240100 0.0 10232251
18:00+12в376597 0.0 1023182
21:00+10юв3876100 0.1 1023250